Content
SEND FEEDBACK

Daily
Averages
Monthly
Summary
United States of America

HAZELWOOD, MISSOURI


Home > North America > United States > Missouri
Elevation: 570 feet     Latitude: 38 45N     Longitude: 090 22W

WEATHER
 
SELECT A DAY
Number of Records: 198,984;   Date Range: 1/1/95 - 9/30/14
 
SHARE

PRINT THIS DATA

[ ← Previous Day ]
WEATHER ALMANAC - MAY 17, 2013
[ Next Day → ]
[ °C ]   °F
Weather ElementAverageHighLow
Temperature69.8 °F77 °F (3:54 pm)62.1 °F (1:54 am)
Dewpoint63 °F66.2 °F (1:51 pm)59 °F (1:54 am)
Humidity79.3 %93 % (8:54 pm)64 % (5:54 pm)
Barometer29.92 in29.95 in (10:54 am)29.89 in (3:54 am)
Wind Speed2.9 mph9.2 mph (2:54 pm)
Weather ElementAverage
Visibility9.5 mi
Wind DirectionENE (59.6 °)

Weather ElementTotal
Precipitation0.12 in
Cooling Degree Days4.6 (Base 65)
Growing Degree Days19.6 (Base 50)
Averaged from 25 records on May 17, 2013
WEATHER CONDITIONS BREAKOUT
WIND DIRECTION BREAKOUT
WEATHER BY HOUR - MAY 17, 2013
[ °C ]   °F
Local TimeTemperatureDewpointHumidityBarometerVisibilityWind DirectionWind SpeedGust SpeedPrecipitationEventsConditions
1:54 AM62.1 °F59.0 °F90 %29.91 in10.0 miCalmMostly Cloudy
2:54 AM64.0 °F60.1 °F87 %29.90 in10.0 miCalmOvercast
3:54 AM64.9 °F60.1 °F84 %29.89 in10.0 miCalm0.00 inOvercast
4:54 AM64.9 °F60.1 °F84 %29.90 in10.0 miESE (120°)4.6 mph0.01 inOvercast
5:54 AM64.9 °F60.1 °F84 %29.91 in10.0 miSSE (160°)4.6 mphMostly Cloudy
6:54 AM66.2 °F60.8 °F83 %29.94 in10.0 miCalmOvercast
7:54 AM68.0 °F61.0 °F78 %29.93 in10.0 miVariable3.5 mphMostly Cloudy
8:54 AM70.0 °F63.0 °F78 %29.94 in10.0 miCalmMostly Cloudy
9:54 AM73.0 °F64.0 °F73 %29.94 in10.0 miESE (120°)5.8 mphMostly Cloudy
10:54 AM73.0 °F63.0 °F71 %29.95 in10.0 miSouth (190°)6.9 mphOvercast
11:54 AM73.0 °F63.0 °F71 %29.94 in10.0 miSSE (150°)4.6 mphOvercast
12:39 PM73.4 °F62.6 °F69 %29.95 in10.0 miSouth (180°)3.5 mphOvercast
12:54 PM71.1 °F64.0 °F78 %29.94 in6.0 miEast (100°)6.9 mph0.00 inRainLight Rain
1:51 PM71.6 °F66.2 °F83 %29.94 in9.0 miEast (80°)6.9 mph0.11 inOvercast
1:54 PM71.6 °F66.2 °F83 %29.94 in10.0 miEast (80°)6.9 mphOvercast
2:54 PM75.0 °F64.9 °F71 %29.91 in10.0 miSSE (150°)9.2 mphMostly Cloudy
3:54 PM77.0 °F64.9 °F66 %29.90 in10.0 miCalmOvercast
4:54 PM75.9 °F64.0 °F67 %29.89 in10.0 miCalmOvercast
5:54 PM77.0 °F64.0 °F64 %29.89 in10.0 miVariable5.8 mphMostly Cloudy
6:54 PM73.0 °F64.9 °F76 %29.89 in10.0 miSSE (160°)3.5 mph0.00 inOvercast
7:54 PM73.0 °F64.0 °F73 %29.90 in10.0 miCalmOvercast
8:54 PM66.9 °F64.9 °F93 %29.92 in10.0 miCalmClear
9:54 PM66.0 °F64.0 °F93 %29.93 in7.0 miCalmScattered Clouds
10:54 PM64.9 °F63.0 °F93 %29.94 in7.0 miCalmClear
11:54 PM64.9 °F62.1 °F90 %29.95 in9.0 miCalmClear
Hourly data recorded from KSUS, located miles away from Hazelwood, Missouri







STORIES FROM OUR PARTNERS